Topeka Forbes, KS

1:41 PM CST on December 11, 2017 (GMT -0600)
Forbes

Weather History for KFOE - October, 2011

Change the Weather History Date:

Tuesday, October 25, 2011

  Actual Average Record
Temperature  
Mean Temperature 70 °F -  
Max Temperature 84 °F 64 °F 85 °F (1952)
Min Temperature 55 °F 40 °F 25 °F (2013)
Cooling Degree Days 4    
Growing Degree Days 20 (Base 50)    
Moisture  
Dew Point 48 °F    
Average Humidity 50    
Maximum Humidity 67    
Minimum Humidity 24    
Precipitation  
Precipitation 0.00 in - - ()
Sea Level Pressure  
Sea Level Pressure 29.80 in    
Wind  
Wind Speed 19 mph (SW)    
Max Wind Speed 32 mph    
Max Gust Speed 43 mph    
Visibility 10 miles    
Events      
Averages and records for this station are not official NWS values.
T = Trace of Precipitation, MM = Missing Value Source: NWS Daily Summary

Daily Weather History Graph

Daily Weather History Graph

Search for Another Location

Airport or City:

Trip Planner

Search our weather history database for the weather conditions in past years. The results will help you decide how hot, cold, wet, or windy it might be!

Date:

Astronomy

Oct. 25, 2011 Rise Set
Actual Time 7:42 AM CDT 6:30 PM CDT
Civil Twilight 7:14 AM CDT 6:57 PM CDT
Nautical Twilight 6:43 AM CDT 7:29 PM CDT
Astronomical Twilight 6:12 AM CDT 8:00 PM CDT
Moon 6:15 AM CDT (10/25) 5:32 PM CDT (10/25)
Length of Visible Light 11h 43m
Length of Day
10h 48m
Waning Crescent, 2% of the Moon is Illuminated
Oct 25
Waning Crescent
Oct 26
New
Nov 2
First Quarter
Nov 10
Full
Nov 18
Last Quarter

Hourly Weather History & Observations

Time (CDT) Temp. Dew Point Humidity Pressure Visibility Wind Dir Wind Speed Gust Speed Precip Events Conditions
12:53 AM 66.9 °F 50.0 °F 54% 29.89 in 10.0 mi South 16.1 mph 24.2 mph N/A   Clear
1:53 AM 66.0 °F 48.0 °F 52% 29.87 in 10.0 mi South 17.3 mph 24.2 mph N/A   Clear
2:53 AM 66.0 °F 48.0 °F 52% 29.85 in 10.0 mi South 18.4 mph 28.8 mph N/A   Clear
3:53 AM 64.9 °F 48.9 °F 56% 29.82 in 10.0 mi South 18.4 mph 32.2 mph N/A   Clear
4:53 AM 64.0 °F 52.0 °F 65% 29.80 in 10.0 mi South 19.6 mph 28.8 mph N/A   Clear
5:53 AM 64.0 °F 53.1 °F 67% 29.79 in 10.0 mi South 24.2 mph 32.2 mph N/A   Clear
7:53 AM 64.0 °F 53.1 °F 67% 29.76 in 10.0 mi South 23.0 mph 35.7 mph N/A   Clear
8:53 AM 64.9 °F 53.1 °F 65% 29.76 in 10.0 mi South 25.3 mph 40.3 mph N/A   Clear
9:53 AM 68.0 °F 54.0 °F 61% 29.72 in 10.0 mi South 29.9 mph 40.3 mph N/A   Clear
10:53 AM 73.0 °F 53.1 °F 49% 29.72 in 10.0 mi SSW 32.2 mph 42.6 mph N/A   Clear
11:53 AM 77.0 °F 54.0 °F 45% 29.73 in 10.0 mi SW 21.9 mph 38.0 mph N/A   Clear
12:53 PM 82.0 °F 52.0 °F 35% 29.69 in 10.0 mi SSW 24.2 mph 32.2 mph N/A   Clear
2:53 PM 82.9 °F 48.9 °F 31% 29.67 in 10.0 mi WSW 25.3 mph 29.9 mph N/A   Clear
3:53 PM 82.0 °F 42.1 °F 24% 29.70 in 10.0 mi West 24.2 mph 32.2 mph N/A   Clear
4:53 PM 79.0 °F 41.0 °F 26% 29.73 in 10.0 mi WNW 15.0 mph 21.9 mph N/A   Clear
6:53 PM 66.9 °F 43.0 °F 42% 29.81 in 10.0 mi NW 18.4 mph - N/A   Clear
7:53 PM 63.0 °F 42.1 °F 46% 29.85 in 10.0 mi NW 11.5 mph - N/A   Clear
8:53 PM 61.0 °F 42.1 °F 50% 29.87 in 10.0 mi NNW 10.4 mph - N/A   Clear
9:53 PM 60.1 °F 41.0 °F 49% 29.89 in 10.0 mi North 18.4 mph 25.3 mph N/A   Clear
10:53 PM 57.9 °F 41.0 °F 53% 29.92 in 10.0 mi North 11.5 mph - N/A   Clear
11:53 PM 55.9 °F 41.0 °F 57% 29.92 in 10.0 mi North 8.1 mph - N/A   Clear